Time,TemperatureF,DewpointF,PressureIn,WindDirection,WindDirectionDegrees,WindSpeedMPH,WindSpeedGustMPH,Humidity,HourlyPrecipIn,Conditions,Clouds,dailyrainin,SoftwareType,DateUTC
2013-01-24 00:00:00,-1.3,-13.2,30.09,NNW,329,6.0,8.0,56,0.00,,,0.00,meteohub,2013-01-24 05:00:00,
2013-01-24 00:01:00,-1.3,-13.2,30.09,NNW,333,5.0,8.0,56,0.00,,,0.00,meteohub,2013-01-24 05:01:00,
2013-01-24 00:03:00,-1.3,-13.2,30.09,NNW,337,6.0,8.0,56,0.00,,,0.00,meteohub,2013-01-24 05:03:00,
2013-01-24 00:09:00,-1.7,-13.5,30.09,North,7,4.0,8.0,56,0.00,,,0.00,meteohub,2013-01-24 05:09:00,
2013-01-24 00:14:00,-1.8,-13.7,30.09,NNW,341,0.0,8.0,56,0.00,,,0.00,meteohub,2013-01-24 05:14:00,
2013-01-24 00:23:00,-1.5,-13.4,30.06,WNW,285,0.0,8.0,56,0.00,,,0.00,meteohub,2013-01-24 05:23:00,
2013-01-24 00:28:00,-1.3,-13.2,30.06,WNW,285,0.0,5.0,56,0.00,,,0.00,meteohub,2013-01-24 05:28:00,
2013-01-24 00:33:00,-1.1,-13.0,30.06,WNW,285,0.0,5.0,56,0.00,,,0.00,meteohub,2013-01-24 05:33:00,
2013-01-24 00:38:00,-2.2,-14.1,30.06,WNW,285,0.0,0.0,56,0.00,,,0.00,meteohub,2013-01-24 05:38:00,
2013-01-24 00:43:00,-2.2,-14.1,30.06,WNW,285,0.0,0.0,56,0.00,,,0.00,meteohub,2013-01-24 05:43:00,
2013-01-24 00:48:00,-2.4,-14.3,30.06,WNW,285,0.0,0.0,56,0.00,,,0.00,meteohub,2013-01-24 05:48:00,
2013-01-24 00:53:00,-1.8,-13.7,30.06,WNW,285,0.0,0.0,56,0.00,,,0.00,meteohub,2013-01-24 05:53:00,
2013-01-24 00:58:00,-2.2,-14.1,30.06,NNW,333,0.0,0.0,56,0.00,,,0.00,meteohub,2013-01-24 05:58:00,
2013-01-24 01:03:00,-2.2,-14.1,30.06,NW,319,0.0,0.0,56,0.00,,,0.00,meteohub,2013-01-24 06:03:00,
2013-01-24 01:10:00,-1.5,-13.4,30.06,NW,319,0.0,0.0,56,0.00,,,0.00,meteohub,2013-01-24 06:10:00,
2013-01-24 01:15:00,-1.5,-13.4,30.06,NNW,334,6.0,6.0,56,0.00,,,0.00,meteohub,2013-01-24 06:15:00,
2013-01-24 01:20:00,-1.3,-13.2,30.06,NNW,332,4.0,5.0,56,0.00,,,0.00,meteohub,2013-01-24 06:20:00,
2013-01-24 01:25:00,-1.5,-13.4,30.06,NNW,331,3.0,5.0,56,0.00,,,0.00,meteohub,2013-01-24 06:25:00,
2013-01-24 01:30:00,-1.3,-13.2,30.06,NNW,333,4.0,6.0,56,0.00,,,0.00,meteohub,2013-01-24 06:30:00,
2013-01-24 02:00:00,-2.9,-14.8,30.09,NNW,332,0.0,0.0,56,0.00,,,0.00,meteohub,2013-01-24 07:00:00,
2013-01-24 02:05:00,-3.1,-15.0,30.09,NNW,332,0.0,0.0,56,0.00,,,0.00,meteohub,2013-01-24 07:05:00,
2013-01-24 02:17:00,-3.5,-15.2,30.09,NNW,330,0.0,0.0,56,0.00,,,0.00,meteohub,2013-01-24 07:17:00,
2013-01-24 02:22:00,-3.6,-15.3,30.09,NNW,330,0.0,0.0,56,0.00,,,0.00,meteohub,2013-01-24 07:22:00,
2013-01-24 02:30:00,-3.5,-15.2,30.09,NNW,330,0.0,0.0,56,0.00,,,0.00,meteohub,2013-01-24 07:30:00,
2013-01-24 02:37:00,-3.5,-15.2,30.09,NNW,330,0.0,0.0,56,0.00,,,0.00,meteohub,2013-01-24 07:37:00,
2013-01-24 02:42:00,-3.5,-15.2,30.09,NNW,330,0.0,0.0,56,0.00,,,0.00,meteohub,2013-01-24 07:42:00,
2013-01-24 02:54:00,-3.6,-15.3,30.06,NNW,330,0.0,0.0,56,0.00,,,0.00,meteohub,2013-01-24 07:54:00,
2013-01-24 02:59:00,-3.3,-15.0,30.06,NNW,330,0.0,0.0,56,0.00,,,0.00,meteohub,2013-01-24 07:59:00,
2013-01-24 03:04:00,-3.5,-15.2,30.06,NNW,345,0.0,0.0,56,0.00,,,0.00,meteohub,2013-01-24 08:04:00,
2013-01-24 03:09:00,-3.5,-15.2,30.06,NNW,345,0.0,6.0,56,0.00,,,0.00,meteohub,2013-01-24 08:09:00,
2013-01-24 03:14:00,-3.3,-15.0,30.06,NNW,345,0.0,6.0,56,0.00,,,0.00,meteohub,2013-01-24 08:14:00,
2013-01-24 03:19:00,-3.5,-15.2,30.06,NNW,345,0.0,6.0,56,0.00,,,0.00,meteohub,2013-01-24 08:19:00,
2013-01-24 03:29:00,-4.2,-15.9,30.06,NNW,345,0.0,0.0,56,0.00,,,0.00,meteohub,2013-01-24 08:29:00,
2013-01-24 03:34:00,-4.2,-15.9,30.06,NNW,345,0.0,0.0,56,0.00,,,0.00,meteohub,2013-01-24 08:34:00,
2013-01-24 03:51:00,-3.5,-15.2,30.06,NW,324,4.0,0.0,56,0.00,,,0.00,meteohub,2013-01-24 08:51:00,
2013-01-24 03:56:00,-3.5,-15.2,30.06,NW,323,3.0,5.0,56,0.00,,,0.00,meteohub,2013-01-24 08:56:00,
2013-01-24 04:01:00,-3.5,-15.2,30.06,NW,322,3.0,5.0,56,0.00,,,0.00,meteohub,2013-01-24 09:01:00,
2013-01-24 04:06:00,-3.3,-15.0,30.06,NW,321,0.0,5.0,56,0.00,,,0.00,meteohub,2013-01-24 09:06:00,
2013-01-24 04:27:00,-4.4,-16.1,30.06,NW,321,0.0,0.0,56,0.00,,,0.00,meteohub,2013-01-24 09:27:00,
2013-01-24 04:32:00,-4.7,-16.4,30.06,NW,321,0.0,0.0,56,0.00,,,0.00,meteohub,2013-01-24 09:32:00,
2013-01-24 04:37:00,-5.1,-16.8,30.06,NW,321,0.0,0.0,56,0.00,,,0.00,meteohub,2013-01-24 09:37:00,
2013-01-24 04:58:00,-4.7,-16.4,30.06,NW,321,0.0,0.0,56,0.00,,,0.00,meteohub,2013-01-24 09:58:00,
2013-01-24 05:03:00,-4.9,-16.6,30.06,NW,321,0.0,0.0,56,0.00,,,0.00,meteohub,2013-01-24 10:03:00,
2013-01-24 05:08:00,-5.1,-16.8,30.06,NW,321,0.0,0.0,56,0.00,,,0.00,meteohub,2013-01-24 10:08:00,
2013-01-24 05:13:00,-5.1,-16.8,30.06,NW,321,0.0,0.0,56,0.00,,,0.00,meteohub,2013-01-24 10:13:00,
2013-01-24 05:53:00,-5.8,-17.5,30.06,NW,321,0.0,0.0,56,0.00,,,0.00,meteohub,2013-01-24 10:53:00,
2013-01-24 05:58:00,-5.8,-17.5,30.06,NW,321,0.0,0.0,56,0.00,,,0.00,meteohub,2013-01-24 10:58:00,
2013-01-24 06:28:00,-6.3,-17.9,30.06,NW,321,0.0,0.0,56,0.00,,,0.00,meteohub,2013-01-24 11:28:00,
2013-01-24 06:33:00,-5.8,-17.5,30.06,NW,321,0.0,0.0,56,0.00,,,0.00,meteohub,2013-01-24 11:33:00,
2013-01-24 06:38:00,-6.3,-17.9,30.06,NW,321,0.0,0.0,56,0.00,,,0.00,meteohub,2013-01-24 11:38:00,
2013-01-24 06:43:00,-6.7,-18.2,30.06,NW,321,0.0,0.0,56,0.00,,,0.00,meteohub,2013-01-24 11:43:00,
2013-01-24 06:48:00,-6.7,-18.2,30.06,NW,321,0.0,0.0,56,0.00,,,0.00,meteohub,2013-01-24 11:48:00,
2013-01-24 06:53:00,-6.7,-18.2,30.06,NW,321,0.0,0.0,56,0.00,,,0.00,meteohub,2013-01-24 11:53:00,
2013-01-24 07:13:00,-6.7,-18.2,30.06,NNW,344,0.0,0.0,56,0.00,,,0.00,meteohub,2013-01-24 12:13:00,
2013-01-24 07:18:00,-6.9,-18.4,30.06,NNW,343,0.0,0.0,56,0.00,,,0.00,meteohub,2013-01-24 12:18:00,
2013-01-24 07:23:00,-7.1,-18.6,30.06,NNW,343,0.0,0.0,56,0.00,,,0.00,meteohub,2013-01-24 12:23:00,
2013-01-24 07:28:00,-6.7,-18.2,30.06,NNW,343,0.0,0.0,56,0.00,,,0.00,meteohub,2013-01-24 12:28:00,
2013-01-24 07:33:00,-6.7,-18.2,30.06,NNW,343,0.0,0.0,56,0.00,,,0.00,meteohub,2013-01-24 12:33:00,
2013-01-24 07:38:00,-6.2,-17.9,30.09,NNW,343,0.0,0.0,56,0.00,,,0.00,meteohub,2013-01-24 12:38:00,
2013-01-24 07:43:00,-5.3,-17.0,30.09,NNW,343,0.0,0.0,56,0.00,,,0.00,meteohub,2013-01-24 12:43:00,
2013-01-24 07:50:00,-5.1,-16.8,30.09,NNW,343,0.0,0.0,56,0.00,,,0.00,meteohub,2013-01-24 12:50:00,
2013-01-24 07:55:00,-5.1,-16.8,30.06,NNW,338,0.0,5.0,56,0.00,,,0.00,meteohub,2013-01-24 12:55:00,
2013-01-24 08:00:00,-5.1,-16.8,30.06,NNW,338,0.0,5.0,56,0.00,,,0.00,meteohub,2013-01-24 13:00:00,
2013-01-24 08:05:00,-5.1,-16.8,30.06,NNW,338,0.0,5.0,56,0.00,,,0.00,meteohub,2013-01-24 13:05:00,
2013-01-24 08:10:00,-4.7,-16.4,30.09,NNW,338,0.0,3.0,56,0.00,,,0.00,meteohub,2013-01-24 13:10:00,
2013-01-24 08:15:00,-4.7,-16.4,30.09,NNW,338,0.0,3.0,56,0.00,,,0.00,meteohub,2013-01-24 13:15:00,
2013-01-24 08:20:00,-4.5,-16.2,30.09,NNW,346,3.0,5.0,56,0.00,,,0.00,meteohub,2013-01-24 13:20:00,
2013-01-24 09:23:00,-1.7,-13.5,30.09,NNW,332,8.0,11.0,56,0.00,,,0.00,meteohub,2013-01-24 14:23:00,
2013-01-24 09:28:00,-1.5,-13.4,30.09,NNW,333,8.0,11.0,56,0.00,,,0.00,meteohub,2013-01-24 14:28:00,
2013-01-24 09:34:00,-1.1,-13.0,30.09,NNW,339,6.0,13.0,56,0.00,,,0.00,meteohub,2013-01-24 14:34:00,
2013-01-24 09:39:00,-1.1,-13.0,30.09,WNW,289,8.0,13.0,56,0.00,,,0.00,meteohub,2013-01-24 14:39:00,
2013-01-24 09:46:00,-0.8,-12.6,30.09,NW,318,4.0,11.0,56,0.00,,,0.00,meteohub,2013-01-24 14:46:00,
2013-01-24 09:51:00,-0.6,-12.5,30.09,WNW,296,6.0,11.0,56,0.00,,,0.00,meteohub,2013-01-24 14:51:00,
2013-01-24 09:56:00,-0.6,-12.5,30.09,NNW,335,8.0,12.0,56,0.00,,,0.00,meteohub,2013-01-24 14:56:00,
2013-01-24 10:01:00,-0.2,-12.1,30.09,NNW,329,11.0,12.0,56,0.00,,,0.00,meteohub,2013-01-24 15:01:00,
2013-01-24 10:06:00,0.0,-11.9,30.09,NW,309,5.0,12.0,56,0.00,,,0.00,meteohub,2013-01-24 15:06:00,
2013-01-24 10:11:00,0.0,-11.9,30.09,NNW,331,3.0,13.0,56,0.00,,,0.00,meteohub,2013-01-24 15:11:00,
2013-01-24 10:16:00,0.0,-11.9,30.09,NW,308,5.0,13.0,56,0.00,,,0.00,meteohub,2013-01-24 15:16:00,
2013-01-24 10:21:00,-0.2,-12.1,30.09,WNW,303,5.0,13.0,56,0.00,,,0.00,meteohub,2013-01-24 15:21:00,
2013-01-24 10:26:00,-0.2,-12.1,30.09,WSW,252,6.0,12.0,56,0.00,,,0.00,meteohub,2013-01-24 15:26:00,
2013-01-24 10:31:00,0.0,-11.9,30.09,North,350,5.0,12.0,56,0.00,,,0.00,meteohub,2013-01-24 15:31:00,
2013-01-24 10:36:00,0.0,-11.9,30.09,NW,318,6.0,11.0,56,0.00,,,0.00,meteohub,2013-01-24 15:36:00,
2013-01-24 10:41:00,0.5,-11.6,30.09,NNW,341,8.0,11.0,56,0.00,,,0.00,meteohub,2013-01-24 15:41:00,
2013-01-24 10:46:00,1.2,-10.8,30.09,NNW,330,10.0,15.0,56,0.00,,,0.00,meteohub,2013-01-24 15:46:00,
2013-01-24 10:51:00,1.2,-10.8,30.09,NW,325,12.0,15.0,56,0.00,,,0.00,meteohub,2013-01-24 15:51:00,
2013-01-24 10:56:00,1.4,-10.7,30.09,NW,305,15.0,16.0,56,0.00,,,0.00,meteohub,2013-01-24 15:56:00,
2013-01-24 11:01:00,1.9,-10.1,30.09,NNW,333,13.0,16.0,56,0.00,,,0.00,meteohub,2013-01-24 16:01:00,
2013-01-24 11:06:00,1.9,-10.1,30.09,SSW,210,4.0,16.0,56,0.00,,,0.00,meteohub,2013-01-24 16:06:00,
2013-01-24 11:11:00,1.9,-10.1,30.09,North,350,15.0,21.0,56,0.00,,,0.00,meteohub,2013-01-24 16:11:00,
2013-01-24 11:16:00,2.3,-9.8,30.09,NW,320,8.0,21.0,56,0.00,,,0.00,meteohub,2013-01-24 16:16:00,
2013-01-24 11:21:00,2.5,-9.6,30.09,NNW,332,12.0,21.0,56,0.00,,,0.00,meteohub,2013-01-24 16:21:00,
2013-01-24 11:26:00,2.8,-9.2,30.09,West,270,11.0,21.0,56,0.00,,,0.00,meteohub,2013-01-24 16:26:00,
2013-01-24 11:31:00,2.8,-9.2,30.09,NNW,348,5.0,21.0,56,0.00,,,0.00,meteohub,2013-01-24 16:31:00,
2013-01-24 11:36:00,3.2,-9.0,30.09,NNW,343,14.0,18.0,56,0.00,,,0.00,meteohub,2013-01-24 16:36:00,
2013-01-24 11:41:00,3.4,-8.9,30.09,NNW,335,3.0,18.0,56,0.00,,,0.00,meteohub,2013-01-24 16:41:00,
2013-01-24 11:46:00,3.6,-8.7,30.09,NNW,331,6.0,22.0,56,0.00,,,0.00,meteohub,2013-01-24 16:46:00,
2013-01-24 11:51:00,3.7,-8.5,30.09,North,349,9.0,22.0,56,0.00,,,0.00,meteohub,2013-01-24 16:51:00,
2013-01-24 11:56:00,4.1,-8.1,30.09,NW,326,6.0,18.0,56,0.00,,,0.00,meteohub,2013-01-24 16:56:00,
2013-01-24 12:01:00,4.3,-8.0,30.09,NNW,332,22.0,22.0,56,0.00,,,0.00,meteohub,2013-01-24 17:01:00,
2013-01-24 12:06:00,4.3,-8.0,30.06,NW,313,10.0,18.0,56,0.00,,,0.00,meteohub,2013-01-24 17:06:00,
2013-01-24 12:11:00,4.3,-8.0,30.06,WNW,297,4.0,22.0,56,0.00,,,0.00,meteohub,2013-01-24 17:11:00,
2013-01-24 12:16:00,4.5,-7.8,30.06,West,266,11.0,22.0,56,0.00,,,0.00,meteohub,2013-01-24 17:16:00,
2013-01-24 12:21:00,4.5,-7.8,30.06,WNW,300,6.0,19.0,56,0.00,,,0.00,meteohub,2013-01-24 17:21:00,
2013-01-24 12:26:00,4.6,-7.6,30.06,West,275,8.0,19.0,56,0.00,,,0.00,meteohub,2013-01-24 17:26:00,
2013-01-24 12:31:00,4.8,-7.4,30.06,NNW,337,11.0,19.0,56,0.00,,,0.00,meteohub,2013-01-24 17:31:00,
2013-01-24 12:36:00,4.6,-7.6,30.06,NW,322,22.0,22.0,56,0.00,,,0.00,meteohub,2013-01-24 17:36:00,
2013-01-24 12:41:00,5.0,-7.2,30.06,NW,326,8.0,20.0,56,0.00,,,0.00,meteohub,2013-01-24 17:41:00,
2013-01-24 12:46:00,5.2,-7.1,30.06,NNW,327,13.0,24.0,56,0.00,,,0.00,meteohub,2013-01-24 17:46:00,
2013-01-24 12:51:00,5.4,-6.9,30.06,NW,326,4.0,24.0,56,0.00,,,0.00,meteohub,2013-01-24 17:51:00,
2013-01-24 12:56:00,5.9,-6.3,30.06,NW,313,13.0,22.0,56,0.00,,,0.00,meteohub,2013-01-24 17:56:00,
2013-01-24 13:01:00,6.1,-6.3,30.06,NW,312,3.0,22.0,56,0.00,,,0.00,meteohub,2013-01-24 18:01:00,
2013-01-24 13:06:00,6.3,-6.2,30.06,NNW,330,13.0,22.0,56,0.00,,,0.00,meteohub,2013-01-24 18:06:00,
2013-01-24 13:11:00,6.4,-6.0,30.06,NW,311,12.0,17.0,56,0.00,,,0.00,meteohub,2013-01-24 18:11:00,
2013-01-24 13:16:00,6.6,-5.8,30.06,NW,306,5.0,21.0,56,0.00,,,0.00,meteohub,2013-01-24 18:16:00,
2013-01-24 13:21:00,6.8,-5.6,30.03,WSW,241,3.0,21.0,56,0.00,,,0.00,meteohub,2013-01-24 18:21:00,
2013-01-24 13:26:00,7.0,-5.4,30.03,WNW,301,11.0,21.0,56,0.00,,,0.00,meteohub,2013-01-24 18:26:00,
2013-01-24 13:31:00,7.2,-5.3,30.03,North,353,6.0,21.0,56,0.00,,,0.00,meteohub,2013-01-24 18:31:00,
2013-01-24 13:36:00,7.5,-4.9,30.03,NW,306,15.0,20.0,56,0.00,,,0.00,meteohub,2013-01-24 18:36:00,
2013-01-24 13:41:00,7.5,-4.9,30.03,NW,307,4.0,20.0,56,0.00,,,0.00,meteohub,2013-01-24 18:41:00,
2013-01-24 13:46:00,7.9,-4.5,30.03,NW,314,8.0,20.0,56,0.00,,,0.00,meteohub,2013-01-24 18:46:00,
2013-01-24 13:51:00,7.7,-4.7,30.03,NNW,328,8.0,20.0,56,0.00,,,0.00,meteohub,2013-01-24 18:51:00,
2013-01-24 13:56:00,7.7,-4.7,30.03,WNW,286,9.0,15.0,56,0.00,,,0.00,meteohub,2013-01-24 18:56:00,
2013-01-24 14:01:00,7.7,-4.7,30.03,NW,316,17.0,17.0,56,0.00,,,0.00,meteohub,2013-01-24 19:01:00,
2013-01-24 14:06:00,7.7,-4.7,30.03,NNW,331,6.0,15.0,56,0.00,,,0.00,meteohub,2013-01-24 19:06:00,
2013-01-24 14:11:00,7.5,-4.9,30.03,NNW,345,5.0,17.0,56,0.00,,,0.00,meteohub,2013-01-24 19:11:00,
2013-01-24 14:16:00,7.7,-4.7,30.03,NNW,341,7.0,17.0,56,0.00,,,0.00,meteohub,2013-01-24 19:16:00,
2013-01-24 14:21:00,7.7,-4.7,30.03,North,11,8.0,17.0,56,0.00,,,0.00,meteohub,2013-01-24 19:21:00,
2013-01-24 14:26:00,7.5,-4.9,30.03,NW,313,10.0,17.0,56,0.00,,,0.00,meteohub,2013-01-24 19:26:00,
2013-01-24 14:31:00,7.2,-5.3,30.03,SSW,199,9.0,17.0,56,0.00,,,0.00,meteohub,2013-01-24 19:31:00,
2013-01-24 14:36:00,7.2,-5.3,30.03,WSW,257,4.0,17.0,56,0.00,,,0.00,meteohub,2013-01-24 19:36:00,
2013-01-24 14:41:00,7.2,-5.3,30.03,NW,314,5.0,17.0,56,0.00,,,0.00,meteohub,2013-01-24 19:41:00,
2013-01-24 14:46:00,7.2,-5.3,30.03,NW,326,4.0,15.0,56,0.00,,,0.00,meteohub,2013-01-24 19:46:00,
2013-01-24 14:51:00,7.2,-5.3,30.03,SSW,192,4.0,15.0,56,0.00,,,0.00,meteohub,2013-01-24 19:51:00,
2013-01-24 14:56:00,7.2,-5.3,30.03,NNW,332,9.0,13.0,56,0.00,,,0.00,meteohub,2013-01-24 19:56:00,
2013-01-24 15:01:00,7.2,-5.3,30.03,West,270,4.0,13.0,56,0.00,,,0.00,meteohub,2013-01-24 20:01:00,
2013-01-24 15:06:00,7.0,-5.4,30.06,NW,323,11.0,13.0,56,0.00,,,0.00,meteohub,2013-01-24 20:06:00,
2013-01-24 15:11:00,7.0,-5.4,30.06,WNW,297,6.0,15.0,56,0.00,,,0.00,meteohub,2013-01-24 20:11:00,
2013-01-24 15:16:00,7.0,-5.4,30.06,North,353,3.0,15.0,56,0.00,,,0.00,meteohub,2013-01-24 20:16:00,
2013-01-24 15:21:00,7.0,-5.4,30.06,NW,316,8.0,15.0,56,0.00,,,0.00,meteohub,2013-01-24 20:21:00,
2013-01-24 15:26:00,7.0,-5.4,30.06,NNW,335,5.0,15.0,56,0.00,,,0.00,meteohub,2013-01-24 20:26:00,
2013-01-24 15:31:00,7.0,-5.4,30.06,NW,326,15.0,15.0,56,0.00,,,0.00,meteohub,2013-01-24 20:31:00,
2013-01-24 15:36:00,7.0,-5.4,30.06,NNW,339,10.0,15.0,56,0.00,,,0.00,meteohub,2013-01-24 20:36:00,
2013-01-24 15:41:00,6.8,-5.6,30.06,WNW,301,8.0,15.0,56,0.00,,,0.00,meteohub,2013-01-24 20:41:00,
2013-01-24 15:46:00,6.8,-5.6,30.06,West,279,4.0,15.0,56,0.00,,,0.00,meteohub,2013-01-24 20:46:00,
2013-01-24 15:51:00,6.8,-5.6,30.06,WNW,285,24.0,24.0,56,0.00,,,0.00,meteohub,2013-01-24 20:51:00,
2013-01-24 15:56:00,6.8,-5.6,30.06,WNW,282,3.0,24.0,56,0.00,,,0.00,meteohub,2013-01-24 20:56:00,
2013-01-24 16:01:00,6.8,-5.6,30.06,NW,313,5.0,24.0,56,0.00,,,0.00,meteohub,2013-01-24 21:01:00,
2013-01-24 16:06:00,6.8,-5.6,30.06,WNW,302,11.0,24.0,56,0.00,,,0.00,meteohub,2013-01-24 21:06:00,
2013-01-24 16:11:00,6.8,-5.6,30.06,SW,218,5.0,24.0,56,0.00,,,0.00,meteohub,2013-01-24 21:11:00,
2013-01-24 16:16:00,6.6,-5.8,30.06,WNW,302,4.0,13.0,56,0.00,,,0.00,meteohub,2013-01-24 21:16:00,
2013-01-24 16:21:00,6.6,-5.8,30.06,NNW,334,9.0,13.0,56,0.00,,,0.00,meteohub,2013-01-24 21:21:00,
2013-01-24 16:26:00,6.4,-6.0,30.06,North,350,3.0,13.0,56,0.00,,,0.00,meteohub,2013-01-24 21:26:00,
2013-01-24 16:31:00,6.4,-6.0,30.06,WNW,303,5.0,13.0,56,0.00,,,0.00,meteohub,2013-01-24 21:31:00,
2013-01-24 16:36:00,6.4,-6.0,30.06,NW,312,3.0,13.0,56,0.00,,,0.00,meteohub,2013-01-24 21:36:00,
2013-01-24 16:41:00,6.4,-6.0,30.06,NW,321,6.0,13.0,56,0.00,,,0.00,meteohub,2013-01-24 21:41:00,
2013-01-24 16:46:00,6.4,-6.0,30.06,WNW,291,6.0,13.0,56,0.00,,,0.00,meteohub,2013-01-24 21:46:00,
2013-01-24 16:51:00,6.4,-6.0,30.06,NW,304,5.0,13.0,56,0.00,,,0.00,meteohub,2013-01-24 21:51:00,
2013-01-24 16:56:00,6.3,-6.2,30.06,NNW,342,13.0,15.0,56,0.00,,,0.00,meteohub,2013-01-24 21:56:00,
2013-01-24 17:01:00,6.3,-6.2,30.06,West,273,5.0,15.0,56,0.00,,,0.00,meteohub,2013-01-24 22:01:00,
2013-01-24 17:06:00,6.3,-6.2,30.06,NW,308,10.0,15.0,56,0.00,,,0.00,meteohub,2013-01-24 22:06:00,
2013-01-24 17:11:00,6.3,-6.2,30.06,NW,309,9.0,25.0,56,0.00,,,0.00,meteohub,2013-01-24 22:11:00,
2013-01-24 17:16:00,6.3,-6.2,30.06,WNW,299,6.0,11.0,56,0.00,,,0.00,meteohub,2013-01-24 22:16:00,
2013-01-24 17:21:00,6.3,-6.2,30.06,WNW,284,11.0,11.0,56,0.00,,,0.00,meteohub,2013-01-24 22:21:00,
2013-01-24 17:26:00,6.3,-6.2,30.06,WNW,291,4.0,15.0,56,0.00,,,0.00,meteohub,2013-01-24 22:26:00,
2013-01-24 17:31:00,6.3,-6.2,30.06,NNW,332,13.0,15.0,56,0.00,,,0.00,meteohub,2013-01-24 22:31:00,
2013-01-24 17:36:00,6.1,-6.3,30.06,NW,325,7.0,19.0,56,0.00,,,0.00,meteohub,2013-01-24 22:36:00,
2013-01-24 17:41:00,6.1,-6.3,30.06,NW,319,6.0,19.0,56,0.00,,,0.00,meteohub,2013-01-24 22:41:00,
2013-01-24 17:46:00,6.1,-6.3,30.06,South,170,4.0,17.0,56,0.00,,,0.00,meteohub,2013-01-24 22:46:00,
2013-01-24 17:51:00,6.1,-6.3,30.09,NNW,327,8.0,17.0,56,0.00,,,0.00,meteohub,2013-01-24 22:51:00,
2013-01-24 17:56:00,6.1,-6.3,30.09,NNW,348,15.0,15.0,56,0.00,,,0.00,meteohub,2013-01-24 22:56:00,
2013-01-24 18:01:00,6.1,-6.3,30.09,North,0,8.0,10.0,56,0.00,,,0.00,meteohub,2013-01-24 23:01:00,
2013-01-24 18:06:00,6.1,-6.3,30.09,NNW,330,6.0,10.0,56,0.00,,,0.00,meteohub,2013-01-24 23:06:00,
2013-01-24 18:11:00,6.1,-6.3,30.09,NE,53,6.0,19.0,56,0.00,,,0.00,meteohub,2013-01-24 23:11:00,
2013-01-24 18:16:00,5.9,-6.3,30.09,NNW,343,8.0,19.0,56,0.00,,,0.00,meteohub,2013-01-24 23:16:00,
2013-01-24 18:21:00,5.9,-6.3,30.12,SSW,198,6.0,22.0,56,0.00,,,0.00,meteohub,2013-01-24 23:21:00,
2013-01-24 18:26:00,5.9,-6.3,30.12,West,277,11.0,22.0,56,0.00,,,0.00,meteohub,2013-01-24 23:26:00,
2013-01-24 18:31:00,5.9,-6.3,30.12,NNW,337,8.0,22.0,56,0.00,,,0.00,meteohub,2013-01-24 23:31:00,
2013-01-24 18:36:00,5.9,-6.3,30.12,NNW,342,13.0,14.0,56,0.00,,,0.00,meteohub,2013-01-24 23:36:00,
2013-01-24 18:42:00,5.9,-6.3,30.12,WNW,297,6.0,14.0,56,0.00,,,0.00,meteohub,2013-01-24 23:42:00,
2013-01-24 18:46:00,5.9,-6.3,30.12,WNW,291,11.0,14.0,56,0.00,,,0.00,meteohub,2013-01-24 23:46:00,
2013-01-24 18:51:00,5.9,-6.3,30.12,WNW,292,3.0,13.0,56,0.00,,,0.00,meteohub,2013-01-24 23:51:00,
2013-01-24 18:56:00,5.9,-6.3,30.12,NNW,334,5.0,17.0,56,0.00,,,0.00,meteohub,2013-01-24 23:56:00,
2013-01-24 19:01:00,5.9,-6.3,30.12,WNW,297,11.0,17.0,56,0.00,,,0.00,meteohub,2013-01-25 00:01:00,
2013-01-24 19:06:00,5.9,-6.3,30.12,WNW,287,3.0,17.0,56,0.00,,,0.00,meteohub,2013-01-25 00:06:00,
2013-01-24 19:11:00,5.9,-6.3,30.12,WNW,288,0.0,14.0,56,0.00,,,0.00,meteohub,2013-01-25 00:11:00,
2013-01-24 19:16:00,5.7,-6.5,30.12,NNW,339,0.0,14.0,56,0.00,,,0.00,meteohub,2013-01-25 00:16:00,
2013-01-24 19:21:00,5.7,-6.5,30.09,NNW,338,6.0,15.0,56,0.00,,,0.00,meteohub,2013-01-25 00:21:00,
2013-01-24 19:26:00,5.7,-6.5,30.09,NNW,329,9.0,15.0,56,0.00,,,0.00,meteohub,2013-01-25 00:26:00,
2013-01-24 19:32:00,5.5,-6.7,30.09,NW,326,4.0,15.0,56,0.00,,,0.00,meteohub,2013-01-25 00:32:00,
2013-01-24 19:37:00,5.5,-6.7,30.12,NNW,345,11.0,15.0,56,0.00,,,0.00,meteohub,2013-01-25 00:37:00,
2013-01-24 19:42:00,5.5,-6.7,30.12,West,274,18.0,18.0,56,0.00,,,0.00,meteohub,2013-01-25 00:42:00,
2013-01-24 19:47:00,5.5,-6.7,30.12,WNW,293,8.0,18.0,56,0.00,,,0.00,meteohub,2013-01-25 00:47:00,
2013-01-24 19:52:00,5.5,-6.7,30.12,WNW,301,15.0,18.0,56,0.00,,,0.00,meteohub,2013-01-25 00:52:00,
2013-01-24 19:57:00,5.5,-6.7,30.12,NNW,340,9.0,18.0,56,0.00,,,0.00,meteohub,2013-01-25 00:57:00,
2013-01-24 20:02:00,5.4,-6.9,30.12,WNW,299,5.0,18.0,56,0.00,,,0.00,meteohub,2013-01-25 01:02:00,
2013-01-24 20:07:00,5.4,-6.9,30.12,NW,312,8.0,18.0,56,0.00,,,0.00,meteohub,2013-01-25 01:07:00,
2013-01-24 20:12:00,5.4,-6.9,30.12,WNW,300,4.0,17.0,56,0.00,,,0.00,meteohub,2013-01-25 01:12:00,
2013-01-24 20:17:00,5.4,-6.9,30.12,NW,322,5.0,17.0,56,0.00,,,0.00,meteohub,2013-01-25 01:17:00,
2013-01-24 20:22:00,5.2,-7.1,30.12,NNW,338,9.0,17.0,56,0.00,,,0.00,meteohub,2013-01-25 01:22:00,
2013-01-24 20:27:00,5.2,-7.1,30.12,NW,308,4.0,17.0,56,0.00,,,0.00,meteohub,2013-01-25 01:27:00,
2013-01-24 20:32:00,5.2,-7.1,30.12,North,350,6.0,17.0,56,0.00,,,0.00,meteohub,2013-01-25 01:32:00,
2013-01-24 20:37:00,5.0,-7.2,30.12,NW,306,5.0,16.0,56,0.00,,,0.00,meteohub,2013-01-25 01:37:00,
2013-01-24 20:42:00,5.0,-7.2,30.12,WNW,297,4.0,16.0,56,0.00,,,0.00,meteohub,2013-01-25 01:42:00,
2013-01-24 20:47:00,5.0,-7.2,30.12,WNW,285,6.0,24.0,56,0.00,,,0.00,meteohub,2013-01-25 01:47:00,
2013-01-24 20:52:00,5.0,-7.2,30.14,NW,321,10.0,24.0,56,0.00,,,0.00,meteohub,2013-01-25 01:52:00,
2013-01-24 20:57:00,4.8,-7.4,30.14,NW,321,6.0,24.0,56,0.00,,,0.00,meteohub,2013-01-25 01:57:00,
2013-01-24 21:02:00,4.8,-7.4,30.14,WNW,284,3.0,24.0,56,0.00,,,0.00,meteohub,2013-01-25 02:02:00,
2013-01-24 21:07:00,4.8,-7.4,30.12,NNW,328,4.0,18.0,56,0.00,,,0.00,meteohub,2013-01-25 02:07:00,
2013-01-24 21:12:00,4.6,-7.6,30.12,WNW,301,6.0,18.0,56,0.00,,,0.00,meteohub,2013-01-25 02:12:00,
2013-01-24 21:17:00,4.5,-7.8,30.12,West,259,8.0,14.0,56,0.00,,,0.00,meteohub,2013-01-25 02:17:00,
2013-01-24 21:22:00,4.5,-7.8,30.12,WNW,283,3.0,14.0,56,0.00,,,0.00,meteohub,2013-01-25 02:22:00,
2013-01-24 21:27:00,4.5,-7.8,30.12,NNW,344,6.0,15.0,56,0.00,,,0.00,meteohub,2013-01-25 02:27:00,
2013-01-24 21:32:00,4.5,-7.8,30.12,WNW,301,11.0,15.0,56,0.00,,,0.00,meteohub,2013-01-25 02:32:00,
2013-01-24 21:37:00,4.5,-7.8,30.12,NW,320,4.0,15.0,56,0.00,,,0.00,meteohub,2013-01-25 02:37:00,
2013-01-24 21:42:00,4.5,-7.8,30.12,NW,305,10.0,15.0,56,0.00,,,0.00,meteohub,2013-01-25 02:42:00,
2013-01-24 21:47:00,4.5,-7.8,30.12,NNW,327,10.0,23.0,56,0.00,,,0.00,meteohub,2013-01-25 02:47:00,
2013-01-24 21:52:00,4.5,-7.8,30.14,NW,304,6.0,23.0,56,0.00,,,0.00,meteohub,2013-01-25 02:52:00,
2013-01-24 21:57:00,4.3,-8.0,30.14,NW,315,17.0,23.0,56,0.00,,,0.00,meteohub,2013-01-25 02:57:00,
2013-01-24 22:02:00,4.3,-8.0,30.14,NNW,346,9.0,23.0,56,0.00,,,0.00,meteohub,2013-01-25 03:02:00,
2013-01-24 22:07:00,4.1,-8.1,30.17,NNW,328,5.0,23.0,56,0.00,,,0.00,meteohub,2013-01-25 03:07:00,
2013-01-24 22:12:00,4.1,-8.1,30.17,NW,314,9.0,27.0,56,0.00,,,0.00,meteohub,2013-01-25 03:12:00,
2013-01-24 22:17:00,4.1,-8.1,30.17,NW,320,13.0,27.0,56,0.00,,,0.00,meteohub,2013-01-25 03:17:00,
2013-01-24 22:22:00,4.1,-8.1,30.14,West,263,10.0,27.0,56,0.00,,,0.00,meteohub,2013-01-25 03:22:00,
2013-01-24 22:27:00,3.9,-8.3,30.14,NNW,340,19.0,19.0,56,0.00,,,0.00,meteohub,2013-01-25 03:27:00,
2013-01-24 22:32:00,3.9,-8.3,30.14,West,280,15.0,15.0,56,0.00,,,0.00,meteohub,2013-01-25 03:32:00,
2013-01-24 22:37:00,3.7,-8.5,30.14,WNW,300,13.0,28.0,56,0.00,,,0.00,meteohub,2013-01-25 03:37:00,
2013-01-24 22:42:00,3.7,-8.5,30.14,NW,307,5.0,28.0,56,0.00,,,0.00,meteohub,2013-01-25 03:42:00,
2013-01-24 22:47:00,3.7,-8.5,30.14,WNW,296,4.0,28.0,56,0.00,,,0.00,meteohub,2013-01-25 03:47:00,
2013-01-24 22:52:00,3.7,-8.5,30.14,West,275,8.0,28.0,56,0.00,,,0.00,meteohub,2013-01-25 03:52:00,
2013-01-24 22:58:00,3.7,-8.5,30.14,NNW,327,8.0,17.0,56,0.00,,,0.00,meteohub,2013-01-25 03:58:00,
2013-01-24 23:10:00,3.6,-8.7,30.14,NW,304,10.0,23.0,56,0.00,,,0.00,meteohub,2013-01-25 04:10:00,
2013-01-24 23:15:00,3.6,-8.7,30.14,North,4,8.0,23.0,56,0.00,,,0.00,meteohub,2013-01-25 04:15:00,
2013-01-24 23:20:00,3.4,-8.9,30.14,NNW,337,6.0,21.0,56,0.00,,,0.00,meteohub,2013-01-25 04:20:00,
2013-01-24 23:25:00,3.4,-8.9,30.17,NW,323,11.0,21.0,56,0.00,,,0.00,meteohub,2013-01-25 04:25:00,
2013-01-24 23:30:00,3.4,-8.9,30.17,WNW,282,6.0,22.0,56,0.00,,,0.00,meteohub,2013-01-25 04:30:00,
2013-01-24 23:35:00,3.4,-8.9,30.17,NW,320,10.0,13.0,56,0.00,,,0.00,meteohub,2013-01-25 04:35:00,
2013-01-24 23:40:00,3.4,-8.9,30.17,NW,322,4.0,13.0,56,0.00,,,0.00,meteohub,2013-01-25 04:40:00,
2013-01-24 23:46:00,3.4,-8.9,30.17,WNW,297,8.0,13.0,56,0.00,,,0.00,meteohub,2013-01-25 04:46:00,
2013-01-24 23:51:00,3.4,-8.9,30.20,NW,316,4.0,13.0,56,0.00,,,0.00,meteohub,2013-01-25 04:51:00,
2013-01-24 23:56:00,3.4,-8.9,30.20,WNW,303,4.0,13.0,56,0.00,,,0.00,meteohub,2013-01-25 04:56:00,